Wind_Speed
9 10 11 10 10 11 12 13 14 10 7 5 5 5 5 6 5 7 8 7 7 9 8 7 8 8 7 8 8 7 9 11 13 14 15 16 16 15 15 16 15 16 18
7 7 7 9 10 11 12 11 7 5 3 3 3 4 4 4 5 6 8 8 9 9 9 8 8 9 9 8 7 9 10 11 13 13 14 16 15 16 18 16 16 17 19
6 8 9 9 10 10 9 7 5 4 4 4 5 4 2 2 4 8 11 9 5 9 10 10 10 10 10 10 10 10 8 10 12 12 13 14 15 15 17 17 15 19 20
7 8 7 8 8 7 6 6 6 5 6 6 6 5 3 0 2 6 3 5 10 9 12 11 12 10 13 12 10 9 8 10 11 12 14 15 14 15 14 16 22 20 22
5 5 4 5 5 6 6 6 6 8 8 7 7 7 6 3 5 1 1 2 7 8 12 15 14 12 13 13 13 11 10 14 12 13 14 13 15 16 17 18 22 19 31
4 5 6 5 4 5 7 7 8 9 9 7 9 8 6 2 4 5 5 3 6 7 10 12 11 12 14 12 13 14 14 16 13 12 7 12 16 20 18 16 19 22 25
7 7 7 6 4 5 7 8 11 10 8 10 11 8 5 1 8 4 5 2 4 8 8 12 11 12 13 9 10 18 18 17 16 13 10 8 11 17 19 29 19 22 19
8 8 5 4 5 7 10 11 11 9 10 12 11 7 4 2 4 5 3 5 4 3 10 14 12 14 12 12 12 16 17 17 16 11 15 16 10 25 20 20 17 15 18
8 7 5 5 6 8 10 11 10 9 9 12 10 7 3 2 4 4 3 8 5 2 3 6 10 13 15 16 15 16 16 12 12 10 25 23 25 23 22 19 19 18 24
8 6 7 6 9 11 11 11 9 8 11 11 9 5 2 1 1 3 2 3 3 0 3 2 7 10 13 20 20 19 11 13 19 27 25 29 23 25 22 26 25 27 27
10 8 8 8 10 11 11 10 10 11 11 9 6 4 3 2 2 2 3 2 4 3 1 3 11 15 15 19 20 17 8 16 29 30 27 32 34 27 32 33 28 26 25
13 9 10 10 10 10 9 9 9 9 8 8 7 6 4 1 2 3 5 5 8 6 4 10 14 19 21 23 27 21 19 22 27 31 31 31 36 34 37 33 31 31 29
14 10 12 12 10 8 9 8 7 7 8 8 8 7 5 2 5 5 7 9 10 9 9 15 18 20 25 29 29 24 23 25 29 33 31 34 36 40 37 36 35 34 30
15 9 11 10 8 6 6 5 4 3 6 10 10 8 7 7 7 7 7 6 9 7 10 16 17 20 28 27 28 28 26 27 32 27 33 36 36 35 33 31 29 28 27
15 9 10 10 7 5 5 5 4 4 5 9 10 8 8 8 8 7 6 9 10 9 11 17 21 25 26 29 30 27 24 26 26 28 30 27 27 25 25 25 24 23 20
14 13 11 10 8 7 7 7 7 5 8 7 6 6 6 6 7 8 8 12 14 11 15 19 20 21 21 22 25 25 27 27 26 26 24 22 21 21 20 20 20 19 17
13 13 13 12 10 9 8 6 6 6 7 8 6 6 6 8 11 14 14 14 16 15 16 18 20 16 16 18 18 21 24 25 25 23 22 21 21 21 22 21 19 18 18
14 14 12 10 10 9 9 9 8 9 10 9 10 10 12 15 16 16 15 14 14 15 17 19 18 18 15 17 17 16 19 22 22 20 20 21 21 21 21 21 20 19 19
17 14 14 12 10 10 9 10 10 10 10 10 11 11 12 13 12 13 14 14 14 14 14 16 19 20 19 17 17 16 18 21 21 20 19 20 21 20 20 21 21 20 21
18 17 14 12 11 10 8 7 8 9 9 8 7 9 10 11 11 10 9 9 10 12 13 13 14 16 17 17 18 18 18 19 21 22 22 21 21 22 22 22 21 21 22
19 18 17 15 12 10 10 10 7 6 7 7 8 8 7 8 9 9 8 9 8 8 8 10 11 12 13 15 16 17 18 19 21 21 22 22 23 24 24 26 27 27 27
19 19 18 16 16 14 12 11 11 10 8 7 7 7 7 6 6 6 6 6 7 9 10 11 12 13 13 14 16 17 17 18 18 19 19 21 23 24 26 28 29 30 31
16 17 19 19 18 18 18 16 13 12 11 9 8 7 6 7 7 7 8 8 8 8 9 9 10 11 12 14 15 16 17 17 18 21 22 24 25 25 26 27 28 30 31
12 12 15 19 21 21 20 19 17 16 15 14 14 13 12 12 11 11 11 12 13 14 15 15 15 15 15 15 16 16 16 17 19 21 22 25 26 27 29 31 31 32 33
8 7 9 16 18 19 19 20 19 19 18 18 17 16 15 14 14 14 15 17 18 19 20 20 20 20 21 22 23 23 23 23 24 24 26 27 29 30 31 32 33 35 36
22 15 15 12 12 13 17 21 23 22 22 21 20 20 19 19 19 19 19 20 20 20 21 22 23 24 25 27 27 27 27 28 28 29 30 33 34 35 36 36 36 38 39
Wind_Direction
227 232 228 224 228 233 238 242 240 242 239 240 241 246 243 240 250 255 252 255 267 248 230 218 202 196 179 171 170 168 166 172 177 181 177 184 187 188 188 189 190 191 184
217 220 249 255 248 241 239 243 244 233 225 224 225 214 225 256 263 266 272 272 260 226 218 209 193 189 185 187 199 188 176 176 179 180 180 183 186 186 188 188 192 194 184
230 257 249 239 239 242 243 234 225 210 206 199 203 174 199 235 291 303 286 274 223 203 203 203 190 192 188 186 178 186 192 186 176 175 181 181 184 182 188 182 180 180 179
253 246 234 243 237 224 211 206 198 198 185 193 172 153 157 75 320 314 262 260 220 196 191 189 181 175 172 175 180 177 181 184 172 173 167 168 182 193 187 189 175 177 180
245 241 211 198 206 202 196 195 187 184 184 183 164 164 144 109 4 267 115 236 200 195 189 186 182 184 181 192 191 195 185 172 180 178 186 189 202 185 174 175 185 174 171
228 172 170 159 171 186 194 183 181 176 185 175 163 167 165 93 332 309 224 113 186 189 190 186 190 195 192 193 202 196 168 170 175 183 182 193 181 182 174 180 165 173 187
160 161 151 139 134 154 177 177 172 176 180 154 161 171 178 148 344 24 161 133 112 179 190 189 188 185 192 191 186 178 174 165 162 166 184 190 165 193 179 168 163 171 190
154 126 117 110 125 134 148 158 173 170 157 159 165 172 174 107 23 57 137 97 159 156 193 180 198 188 192 172 165 174 176 178 177 183 183 181 190 163 159 159 170 175 173
135 121 111 106 115 127 139 155 172 167 160 163 165 174 157 89 53 69 122 133 122 116 120 183 194 195 199 192 171 170 174 178 181 171 147 145 146 127 141 161 171 179 162
135 130 119 131 126 122 129 144 150 152 153 162 165 179 199 149 117 24 78 154 139 45 115 191 181 182 194 196 192 190 186 202 189 152 149 157 155 148 155 148 145 144 150
139 129 127 129 123 127 136 133 132 136 146 150 160 184 184 101 90 59 62 122 151 150 127 125 153 150 140 147 165 176 182 171 174 165 163 155 151 148 147 144 153 152 153
148 144 129 113 111 121 135 142 140 145 151 155 158 175 182 142 131 94 77 118 141 121 101 141 149 145 135 138 152 155 143 148 153 151 153 150 147 148 151 155 156 153 153
156 153 136 108 104 117 125 145 159 173 184 172 172 181 184 253 153 118 97 115 134 112 117 142 142 131 133 141 145 141 141 148 144 140 143 148 152 155 158 161 161 160 160
163 154 138 107 110 123 123 146 143 161 192 185 179 177 181 166 160 138 112 120 128 111 131 151 154 135 133 137 137 140 138 139 144 146 152 151 154 160 163 164 165 167 168
171 166 138 115 110 119 114 117 121 109 142 175 172 178 161 165 168 160 141 134 138 128 138 150 147 147 138 139 141 144 148 153 153 157 156 155 160 165 168 170 173 177 180
165 152 143 119 104 102 115 111 99 113 124 145 165 163 161 161 162 154 149 147 148 133 139 154 147 150 143 143 147 152 152 152 153 156 164 171 175 177 177 177 181 184 190
157 148 136 121 107 95 109 124 109 101 130 140 141 140 136 145 145 139 139 148 149 148 144 154 167 156 154 156 152 161 164 163 167 169 174 178 179 177 179 183 188 194 202
166 156 138 126 117 106 99 103 116 118 123 126 121 115 113 123 123 119 118 123 142 154 154 159 165 172 170 175 179 178 178 177 176 178 180 182 185 188 192 198 204 211 218
170 171 162 151 137 129 122 117 117 119 120 122 118 115 114 117 123 123 123 123 124 133 150 158 166 175 178 178 180 185 188 190 193 195 198 198 199 202 207 213 217 222 228
176 174 179 171 161 147 133 130 131 127 122 120 122 127 131 133 136 138 136 131 131 136 143 152 163 174 180 184 189 192 193 198 203 207 211 215 218 219 220 224 229 234 239
186 185 183 177 174 167 155 147 143 148 152 149 141 139 149 157 160 162 164 164 165 164 165 170 176 183 192 200 202 204 205 205 209 213 218 223 227 230 232 235 238 242 245
194 193 191 191 182 174 168 163 157 155 158 170 174 174 172 170 169 170 178 189 195 197 201 202 202 206 212 216 219 222 225 227 229 231 233 236 239 240 240 242 244 248 252
203 207 205 202 198 188 176 172 169 167 166 170 176 179 187 195 203 205 208 217 226 233 233 229 227 228 228 229 232 236 239 241 241 240 240 242 245 246 247 250 252 255 258
211 218 225 215 200 196 196 194 190 190 191 195 198 197 195 197 199 203 213 223 226 231 237 243 247 247 249 249 248 248 248 249 251 251 251 251 252 254 255 258 260 262 264
181 191 213 228 228 228 225 221 218 215 215 217 222 225 227 227 227 225 224 225 227 231 233 236 239 243 247 249 250 252 253 253 255 257 258 258 259 260 260 260 261 263 265
235 265 256 230 221 234 241 243 243 241 239 238 240 243 245 247 246 246 246 245 243 243 244 245 245 245 245 247 249 251 252 253 253 254 256 258 258 259 261 262 263 265 267
Height
3036 3037 3039 3040 3042 3043 3044 3045 3046 3048 3048 3050 3050 3051 3052 3053 3054 3055 3055 3055 3056 3057 3058 3058 3059 3061 3062 3063 3065 3067 3069 3072 3075 3078 3081 3085 3089 3092 3095 3100 3104 3108 3112
3034 3036 3037 3037 3038 3039 3040 3041 3043 3044 3046 3047 3048 3049 3050 3051 3052 3052 3052 3051 3053 3054 3055 3056 3058 3059 3061 3063 3065 3067 3070 3072 3075 3078 3081 3084 3088 3091 3094 3099 3103 3107 3112
3033 3034 3034 3034 3035 3036 3037 3039 3041 3042 3044 3046 3047 3048 3049 3050 3050 3050 3048 3049 3050 3052 3053 3054 3056 3058 3060 3063 3064 3067 3069 3072 3074 3078 3081 3084 3087 3090 3093 3098 3102 3106 3111
3031 3031 3031 3032 3033 3034 3036 3038 3040 3041 3043 3045 3046 3047 3049 3050 3050 3049 3047 3047 3048 3050 3051 3053 3055 3057 3059 3062 3064 3067 3069 3072 3074 3077 3080 3083 3086 3089 3093 3097 3101 3105 3110
3029 3029 3029 3030 3031 3033 3035 3037 3039 3041 3043 3045 3046 3047 3049 3050 3049 3048 3047 3046 3045 3048 3051 3052 3055 3056 3059 3062 3064 3067 3068 3071 3075 3078 3080 3082 3085 3089 3091 3096 3100 3104 3109
3027 3027 3029 3029 3030 3032 3034 3036 3038 3040 3042 3044 3046 3048 3049 3050 3049 3048 3047 3046 3046 3047 3049 3051 3054 3056 3058 3060 3063 3065 3068 3072 3075 3078 3080 3081 3084 3089 3093 3096 3100 3103 3107
3026 3028 3028 3029 3030 3031 3033 3036 3038 3040 3042 3043 3045 3048 3049 3049 3047 3046 3046 3046 3046 3046 3048 3049 3052 3054 3056 3058 3059 3062 3066 3070 3072 3077 3080 3081 3084 3088 3093 3095 3101 3106 3111
3026 3027 3028 3029 3030 3031 3033 3036 3038 3040 3041 3043 3045 3047 3048 3049 3048 3047 3047 3046 3046 3045 3045 3048 3051 3052 3055 3057 3060 3063 3066 3069 3071 3074 3077 3081 3084 3089 3093 3099 3104 3107 3110
3027 3028 3029 3030 3031 3032 3033 3035 3038 3039 3041 3043 3045 3047 3048 3049 3049 3048 3047 3046 3046 3045 3045 3046 3047 3049 3052 3056 3060 3063 3065 3069 3072 3073 3076 3082 3086 3092 3097 3102 3104 3108 3111
3027 3029 3029 3031 3032 3033 3034 3036 3038 3040 3041 3044 3046 3047 3048 3049 3049 3048 3047 3046 3047 3046 3046 3046 3046 3047 3049 3053 3058 3062 3066 3068 3071 3074 3077 3083 3089 3094 3098 3103 3109 3114 3119
3028 3030 3031 3032 3032 3033 3035 3037 3038 3041 3042 3045 3046 3047 3048 3049 3049 3049 3048 3047 3047 3047 3047 3046 3046 3047 3049 3052 3056 3062 3065 3066 3069 3073 3079 3084 3089 3095 3100 3106 3112 3116 3122
3029 3031 3032 3033 3034 3035 3036 3038 3040 3042 3044 3045 3046 3047 3048 3049 3049 3050 3049 3048 3048 3048 3048 3048 3049 3050 3052 3055 3060 3064 3068 3071 3074 3077 3082 3086 3092 3098 3103 3107 3112 3117 3123
3030 3031 3033 3034 3035 3036 3037 3039 3041 3042 3043 3044 3046 3047 3049 3049 3050 3051 3051 3050 3051 3051 3051 3053 3054 3055 3056 3060 3064 3069 3073 3076 3080 3083 3087 3091 3095 3100 3105 3109 3114 3118 3123
3030 3032 3034 3035 3037 3038 3039 3040 3041 3042 3042 3043 3045 3047 3049 3050 3051 3052 3053 3053 3054 3055 3055 3057 3059 3061 3062 3065 3069 3073 3078 3082 3086 3089 3092 3096 3101 3105 3109 3114 3118 3122 3125
3031 3034 3035 3037 3038 3039 3040 3041 3042 3042 3042 3044 3046 3047 3049 3050 3052 3053 3054 3055 3057 3058 3059 3062 3064 3067 3069 3071 3075 3078 3082 3086 3090 3093 3098 3102 3106 3110 3114 3117 3120 3124 3127
3033 3035 3037 3038 3039 3040 3041 3042 3043 3044 3045 3046 3047 3049 3050 3051 3052 3053 3055 3056 3059 3061 3063 3067 3070 3073 3076 3078 3080 3083 3086 3090 3094 3098 3102 3105 3108 3112 3116 3119 3121 3124 3126
3034 3036 3038 3040 3041 3041 3042 3043 3044 3045 3047 3049 3049 3050 3051 3052 3053 3055 3057 3058 3060 3063 3066 3070 3074 3077 3080 3083 3085 3087 3090 3093 3096 3099 3102 3105 3108 3112 3114 3117 3120 3122 3124
3035 3037 3039 3042 3042 3043 3044 3045 3046 3047 3049 3051 3052 3053 3054 3056 3057 3058 3060 3061 3063 3066 3068 3072 3075 3079 3082 3085 3087 3090 3093 3096 3099 3101 3103 3105 3108 3111 3113 3116 3118 3120 3121
3034 3038 3040 3042 3043 3045 3046 3047 3049 3050 3052 3054 3055 3056 3058 3060 3062 3063 3064 3065 3066 3068 3071 3073 3075 3078 3081 3084 3087 3089 3092 3096 3099 3101 3103 3105 3107 3110 3112 3113 3114 3116 3117
3034 3037 3040 3042 3044 3045 3047 3049 3050 3052 3053 3055 3057 3059 3060 3061 3063 3065 3067 3068 3070 3071 3073 3075 3077 3079 3081 3084 3086 3089 3091 3093 3096 3099 3101 3103 3105 3107 3109 3111 3112 3113 3114
3033 3036 3039 3042 3044 3046 3047 3049 3051 3053 3055 3057 3059 3061 3062 3064 3065 3066 3067 3069 3071 3073 3075 3077 3079 3081 3082 3084 3086 3088 3090 3091 3093 3096 3098 3100 3102 3103 3105 3106 3107 3107 3108
3033 3036 3038 3041 3043 3045 3047 3049 3051 3052 3054 3056 3058 3060 3062 3064 3066 3068 3069 3070 3072 3073 3074 3076 3078 3080 3082 3083 3085 3086 3088 3090 3092 3094 3095 3096 3097 3099 3100 3100 3101 3102 3102
3031 3034 3037 3039 3042 3044 3046 3048 3050 3051 3053 3054 3056 3058 3060 3063 3065 3066 3068 3070 3071 3072 3074 3075 3077 3078 3080 3081 3082 3084 3085 3087 3088 3089 3090 3091 3091 3092 3093 3094 3094 3094 3094
3029 3032 3036 3038 3041 3043 3045 3047 3048 3050 3052 3052 3053 3055 3057 3059 3061 3063 3065 3066 3068 3069 3070 3072 3073 3075 3076 3077 3078 3079 3081 3082 3083 3084 3084 3084 3085 3085 3085 3085 3086 3086 3086
3027 3031 3033 3036 3039 3042 3044 3045 3047 3048 3049 3050 3052 3053 3054 3056 3058 3059 3060 3061 3062 3063 3064 3065 3066 3068 3069 3071 3072 3073 3075 3076 3077 3078 3078 3078 3078 3078 3077 3077 3077 3077 3077
3022 3026 3030 3032 3034 3036 3039 3041 3044 3045 3047 3048 3049 3050 3051 3052 3053 3055 3056 3057 3058 3059 3060 3061 3061 3062 3062 3062 3063 3064 3065 3066 3067 3068 3067 3067 3067 3067 3067 3067 3068 3067 3066